This is the latest recevied weather packets stored in our database for station/object KC2TER. If no packets are shown the sender has not sent any weather packets the latest 10 day(s).
| Time | Temp. | Humidity | Pressure | Rain* | Wind** | Luminosity | Snow |
|---|---|---|---|---|---|---|---|
| 1777811888 | 8.33° C | 60% | 1012.2 hPa | 0 mm | - | 177 W/m² | - |
| 1777811587 | 8.33° C | 59% | 1012.2 hPa | 0 mm | - | 117 W/m² | - |
| 1777811282 | 8.33° C | 59% | 1012.2 hPa | 0 mm | - | 160 W/m² | - |
| 1777810980 | 8.33° C | 59% | 1012.3 hPa | 0 mm | - | 131 W/m² | - |
| 1777810676 | 8.33° C | 58% | 1012.4 hPa | 0 mm | - | 136 W/m² | - |
| 1777810373 | 8.33° C | 59% | 1012.2 hPa | 0 mm | - | 142 W/m² | - |
| 1777810068 | 7.78° C | 58% | 1012.3 hPa | 0 mm | - | 116 W/m² | - |
| 1777809766 | 7.78° C | 59% | 1012.2 hPa | 0 mm | - | 104 W/m² | - |
| 1777809463 | 7.78° C | 59% | 1012.1 hPa | 0 mm | - | 104 W/m² | - |
| 1777809161 | 7.78° C | 58% | 1012.1 hPa | 0 mm | - | 97 W/m² | - |
| 1777808859 | 7.78° C | 59% | 1012 hPa | 0 mm | - | 82 W/m² | - |
| 1777808556 | 7.78° C | 60% | 1012 hPa | 0 mm | - | 68 W/m² | - |
| 1777808253 | 7.78° C | 59% | 1012.2 hPa | 0 mm | - | 50 W/m² | - |
| 1777807952 | 7.78° C | 58% | 1012 hPa | 0 mm | - | 44 W/m² | - |
| 1777807649 | 7.78° C | 59% | 1011.8 hPa | 0 mm | - | 50 W/m² | - |
| 1777807346 | 7.78° C | 59% | 1011.7 hPa | 0 mm | - | 55 W/m² | - |
| 1777807042 | 7.78° C | 59% | 1011.7 hPa | 0 mm | - | 52 W/m² | - |
| 1777806739 | 7.78° C | 60% | 1011.5 hPa | 0 mm | - | 46 W/m² | - |
| 1777806435 | 7.78° C | 60% | 1011.6 hPa | 0 mm | - | 40 W/m² | - |
| 1777806132 | 7.78° C | 60% | 1011.4 hPa | 0 mm | - | 32 W/m² | - |
| 1777805829 | 7.78° C | 60% | 1011.3 hPa | 0 mm | - | 26 W/m² | - |
| 1777805526 | 7.78° C | 60% | 1011.4 hPa | 0 mm | - | 24 W/m² | - |
| 1777805223 | 7.78° C | 60% | 1011.3 hPa | 0 mm | - | 26 W/m² | - |
| 1777804921 | 7.78° C | 60% | 1011.1 hPa | 0 mm | - | 23 W/m² | - |
| 1777804619 | 7.78° C | 61% | 1011.2 hPa | 0 mm | - | 20 W/m² | - |
* Rain latest hour (hover to see other rain measurements)
** Current wind speed in m/s (hover to see current wind gust speed)